Tura Beach Real Estate, NSW, 2548 Bega Valley

Thinking about buying in Tura Beach? Now could not be a better time, with a whopping 2162 properties either residential or commercial there's certainly plenty to choose from.

The average property price for this area is $759,000 with prices in this suburb ranging from $204,000 to $1,718,000.

Distance to the coast is 0 Km.

Tura Beach Real Estate Market Outlook

In Tura Beach there has been a history of lower than average prices and demand, offering opportunities for investors or first home owners, especially in the context of the growth in working from home. Low average incomes in Tura Beach is reflected in smaller and lower quality accommodation. Over time this may change providsing long-term returns but in the short to medium term, prices are likely to be less than state averages. The slightly lower than average earnings from occupations in Tura Beach changes the housing and lifestyle preference. It is more a matter of what can be afforded rather than what would we prefer, leading to slower price increases over time. Low population density implies low demand and limits housing choices and price increases. Could be a good entry point for first home buyers needing to somehow get into the market. Lower than average industry presence in Tura Beach we believe will be less of a negative impact than it has in the past. Post-COVID and the growth in working from home has lessened the demand for local employment options. This may make Tura Beach a better buying opportunity than it may have been in the past.

About

For Sale

One Agency 7 THE DRESS CIRCLE, TURA BEACH, NSW, 2548 4 2 3 Price Guide $1,650,000
One Agency 71 SURF CIR, TURA BEACH, NSW, 2548 4 2 2 Price Guide $900,000
One Agency 36 BEACH VIEW CT, TURA BEACH, NSW, 2548 4 2 2 Price Guide $1,300,000

More

Local Schools


None within suburb boundary

(While the above schools are located with the suburb of Tura Beach there may also be nearby schools whose catchments cover this suburb)

Local Crime Stats


Average Local Climate by month


(mm)
RAIN
Min (°C)
TEMP
Max (°C)
TEMP
Min (%)
HUMIDITY
Max (%)
HUMIDITY
(m/sec)
WIND
(MJ/sq m)
SOLAR
Jan1.917.022.664.5908.121.9
Feb2.617.022.565.890.97.518.4
Mar2.815.821.661.189.27.515.7
Apr2.214.020.258.588.66.612.8
May2.511.317.457.488.87.09.6
Jun3.39.715.55988.96.77.7
Jul1.78.815.054.287.66.58.5
Aug2.18.915.750.987.6711
Sept2.110.517.156.189.3814.9
Oct2.411.417.956.589.28.119.3
Nov2.213.819.760.889.38.323.3
Dec2.015.121.061.088.48.425.1

source: Australian Government Bureau of Meteorology

Recently Sold

09-05-2022 $2,200,000 362 SAPPHIRE COAST DR TURA BEACH 2548
09-05-2022 $840,000 79 PACIFIC WAY TURA BEACH 2548
05-05-2022 $691,550 2 / 223 PACIFIC WAY TURA BEACH 2548
29-04-2022 $570,000 15 BOURNDA CCT TURA BEACH 2548
28-04-2022 $450,000 1 / 11 TURA BEACH DR TURA BEACH 2548
20-04-2022 $1,349,000 24 THE DRESS CIR TURA BEACH 2548
20-04-2022 $961,000 17 NOLAN DR TURA BEACH 2548
19-04-2022 $870,000 5 MADELINE CT TURA BEACH 2548
11-04-2022 $775,000 2 / 8 KRISTA LEE CT TURA BEACH 2548
11-04-2022 $810,000 226 PACIFIC WAY TURA BEACH 2548
08-04-2022 $790,000 9 BANKSIA CT TURA BEACH 2548
04-04-2022 $899,900 28 GOLF CCT TURA BEACH 2548
04-04-2022 $1,320,000 50 THE DRESS CIR TURA BEACH 2548
04-04-2022 $1,500,000 1 THE POINT TURA BEACH 2548
01-04-2022 $470,000 3 CASEY JAYNE CT TURA BEACH 2548
31-03-2022 $961,500 112 PACIFIC WAY TURA BEACH 2548
23-03-2022 $1,005,000 8 FOREST CT TURA BEACH 2548
21-03-2022 $900,000 143 HEADLAND DR TURA BEACH 2548
14-03-2022 $230,000 9 HAKEA PL TURA BEACH 2548
09-03-2022 $880,000 69 GOLF CCT TURA BEACH 2548
08-03-2022 $640,000 5 / 20 SURF CIR TURA BEACH 2548
04-03-2022 $1,200,000 454 SAPPHIRE COAST DR TURA BEACH 2548
02-03-2022 $1,200,000 6 BAILEY PL TURA BEACH 2548
01-03-2022 $600,000 3 DOLPHIN COVE DR TURA BEACH 2548
25-02-2022 $800,000 43 THE PENINSULA TURA BEACH 2548
23-02-2022 $1,320,000 85 HEADLAND DR TURA BEACH 2548
21-02-2022 $846,000 60 GOLF CCT TURA BEACH 2548
18-02-2022 $820,000 54 SURF CIR TURA BEACH 2548
17-02-2022 $1,350,000 123 TURA BEACH DR TURA BEACH 2548
14-02-2022 $960,000 8 NOLAN DR TURA BEACH 2548
07-02-2022 $205,000 2 / 7 TURA CCT TURA BEACH 2548
04-02-2022 $600,000 119 PACIFIC WAY TURA BEACH 2548
28-01-2022 $1,025,000 33 BOURNDA CCT TURA BEACH 2548
20-01-2022 $1,120,000 15 SURF CIR TURA BEACH 2548
19-01-2022 $821,660 3 MADELINE CT TURA BEACH 2548
18-01-2022 $658,000 7 ANDES PL TURA BEACH 2548
18-01-2022 $1,610,500 14 KANGAROO RUN TURA BEACH 2548
17-01-2022 $840,000 2 ACACIA CRES TURA BEACH 2548
12-01-2022 $200,000 1 / 13 TURA BEACH DR TURA BEACH 2548
12-01-2022 $870,000 15 HEADLAND DR TURA BEACH 2548
20-12-2021 $640,000 20 THE DRESS CIR TURA BEACH 2548
17-12-2021 $475,000 5 / 21 TURA CCT TURA BEACH 2548
17-12-2021 $420,000 4 / 1 SURF CIR TURA BEACH 2548
16-12-2021 $830,000 6 KIRA LANI CT TURA BEACH 2548
15-12-2021 $510,000 1 / 35 PACIFIC WAY TURA BEACH 2548
10-12-2021 $599,000 6 / 92 TURA BEACH DR TURA BEACH 2548
10-12-2021 $815,000 64 TURA BEACH DR TURA BEACH 2548
10-12-2021 $830,000 1 / 28 SURF CIR TURA BEACH 2548
22-11-2021 $799,000 2 / 44 GOLF CCT TURA BEACH 2548
16-11-2021 $449,000 2 / 9 TURA CCT TURA BEACH 2548

Residz covers 12m+ Australian properties and brings together a wealth of data to give you a better understanding of an area. From crime and schools to bush fire, flood risk and more. Begin your search for properties for sale or learn more about where you currently reside. Residz is an exciting next-generation Real Estate platform getting better by the day!